Weather History for K9V9 - October, 2011

Change the Weather History Date:

Saturday, October 15, 2011

  Actual Average Record
Temperature  
Mean Temperature 52 °F -  
Max Temperature 68 °F 61 °F 84 °F (2012)
Min Temperature 37 °F 36 °F 28 °F (2001)
Degree Days  
Heating Degree Days 14    
Growing Degree Days 2 (Base 50)    
Moisture  
Dew Point 34 °F    
Average Humidity 56    
Maximum Humidity 86    
Minimum Humidity 28    
Precipitation  
Precipitation 0.00 in - - ()
Sea Level Pressure  
Sea Level Pressure 29.92 in    
Wind  
Wind Speed 7 mph (SE)    
Max Wind Speed 14 mph    
Max Gust Speed 18 mph    
Averages and records for this station are not official NWS values.
T = Trace of Precipitation, MM = Missing Value Source: NWS Daily Summary

Daily Weather History Graph

Daily Weather History Graph

Search for Another Location

Airport or City:

Trip Planner

Search our weather history database for the weather conditions in past years. The results will help you decide how hot, cold, wet, or windy it might be!

Date:

Astronomy

Oct. 15, 2011 Rise Set
Actual Time 7:51 AM CDT 6:54 PM CDT
Civil Twilight 7:22 AM CDT 7:23 PM CDT
Nautical Twilight 6:49 AM CDT 7:56 PM CDT
Astronomical Twilight 6:15 AM CDT 8:29 PM CDT
Moon 8:44 PM CDT (10/15) 11:24 AM CDT (10/15)
Length of Visible Light 12h 00m
Length of Day
11h 02m
Waning Gibbous, 89% of the Moon is Illuminated
Oct 15
Waning Gibbous
Oct 19
Last Quarter
Oct 26
New
Nov 2
First Quarter
Nov 10
Full

Hourly Weather History & Observations

Time (CDT) Temp. Windchill Dew Point Humidity Pressure Visibility Wind Dir Wind Speed Gust Speed Precip Events Conditions
12:52 AM 42.1 °F 38.4 °F 32.0 °F 67% 30.03 in - WNW 5.8 mph - N/A   Unknown
1:52 AM 44.1 °F 42.5 °F 33.1 °F 65% 30.02 in - NW 3.5 mph - N/A   Unknown
2:52 AM 41.0 °F 36.4 °F 32.0 °F 70% 30.02 in - WNW 6.9 mph - N/A   Unknown
3:52 AM 39.0 °F 34.0 °F 32.0 °F 76% 30.03 in - West 6.9 mph - N/A   Unknown
4:52 AM 39.0 °F 34.8 °F 33.1 °F 79% 30.01 in - West 5.8 mph - N/A   Unknown
5:52 AM 37.9 °F 34.4 °F 34.0 °F 86% 30.01 in - WSW 4.6 mph - N/A   Unknown
6:52 AM 41.0 °F - 34.0 °F 76% 30.00 in - Calm Calm - N/A   Unknown
7:52 AM 39.0 °F 34.8 °F 35.1 °F 86% 29.99 in - SSW 5.8 mph - N/A   Unknown
8:52 AM 43.0 °F 38.2 °F 37.9 °F 82% 29.97 in - South 8.1 mph - N/A   Unknown
9:52 AM 50.0 °F - 37.9 °F 63% 29.96 in - East 3.5 mph - N/A   Unknown
10:52 AM 52.0 °F - 37.0 °F 57% 29.96 in - SE 6.9 mph - N/A   Unknown
11:52 AM 59.0 °F - 35.1 °F 41% 29.91 in - South 8.1 mph - N/A   Unknown
12:52 PM 63.0 °F - 34.0 °F 34% 29.88 in - SSE 11.5 mph - N/A   Unknown
1:52 PM 64.0 °F - 30.0 °F 28% 29.83 in - South 12.7 mph 18.4 mph N/A   Unknown
2:52 PM 64.9 °F - 30.9 °F 28% 29.81 in - South 8.1 mph - N/A   Unknown
3:52 PM 66.0 °F - 33.1 °F 29% 29.77 in - SSE 8.1 mph - N/A   Unknown
4:52 PM 66.9 °F - 34.0 °F 30% 29.80 in - ENE 8.1 mph - N/A   Unknown
5:52 PM 64.0 °F - 35.1 °F 34% 29.81 in - East 10.4 mph - N/A   Unknown
6:52 PM 59.0 °F - 35.1 °F 41% 29.79 in - ESE 8.1 mph - N/A   Unknown
7:52 PM 54.0 °F - 36.0 °F 51% 29.81 in - East 10.4 mph - N/A   Unknown
8:52 PM 53.1 °F - 34.0 °F 48% 29.85 in - ENE 13.8 mph - N/A   Unknown
9:52 PM 51.1 °F - 33.1 °F 50% 29.89 in - NE 11.5 mph - N/A   Unknown
10:52 PM 50.0 °F - 34.0 °F 54% 29.92 in - NE 6.9 mph - N/A   Unknown
11:52 PM 48.9 °F - 36.0 °F 61% 29.94 in - NE 9.2 mph - N/A   Unknown